Location: Ottobeuren
(47.9410°N, 10.3007°E)
Time: 20:56:18
(UTC+01:00)

ISS - Pass Details

Date: 31 October 2019
Orbit: 412 x 421 km, 51.6° (Epoch: 23 November)

Event Time Altitude Azimuth Distance (km) Brightness Sun altitude
Exits shadow 04:57:51 72° 54° (NE) 448 -3.6 -21.1°
Drops below altitude 10° 05:00:56 10° 67° (ENE) 1,508 0.1 -20.6°
Sets 05:03:03 0° 68° (ENE) 2,373 1.3 -20.3°
